#timestamp,LO_Frequency,Hit,StdDev 
1579341615.8,286046995.4,N
1579341635.7,286046996.6,N
1579341655.5,286046999.6,N
1579341675.3,286046998.0,N
1579341695.2,286046993.8,N
1579341715.9,286046994.6,N
1579341735.7,286046992.3,N
1579341755.6,286046993.6,N
1579341775.4,286046994.5,N
1579341795.3,286046992.1,N
1579341815.1,286046990.5,Y
1579341816.0,286046990.5,P
1579341835.8,286046993.3,N
1579341855.7,286046993.5,N
1579341875.5,286046995.9,N
1579341895.4,286046995.5,N
1579341915.2,286046995.3,N
1579341935.0,286046997.7,N
1579341935.9,286046997.7,N
1579341955.8,286046997.5,N
1579341975.6,286046997.1,N
1579341995.4,286046996.5,N
1579342015.3,286046999.2,N
1579342035.1,286047000.7,N
1579342055.9,286047002.3,N
1579342075.7,286047002.6,N
1579342095.5,286047001.8,N
1579342115.4,286047004.4,N
1579342135.2,286047002.7,N
1579342155.0,286046999.9,N
1579342155.9,286046999.9,N
1579342175.8,286047002.7,N
1579342195.6,286047002.6,N
1579342215.5,286047002.1,N
1579342235.3,286046999.9,N
1579342255.1,286047000.6,N
1579342275.9,286047001.4,N
1579342295.7,286047002.8,N
1579342315.5,286047000.2,N
1579342335.4,286046999.5,N
1579342355.2,286046999.6,N
1579342375.0,286046995.3,N
1579342376.0,286046995.3,N
1579342395.8,286046995.0,N
1579342415.6,286046995.6,N
1579342435.5,286046991.8,N
1579342455.3,286046996.0,N
1579342475.1,286046993.6,N
1579342495.9,286046996.2,N
1579342515.7,286046995.5,N
1579342535.5,286046997.8,N
1579342555.4,286046995.3,N
1579342575.2,286046995.3,N
1579342595.1,286046995.3,N
1579342596.0,286046995.3,N
1579342615.8,286046997.9,N
1579342635.6,286046995.8,N
1579342655.5,286046995.6,N
1579342675.3,286046993.6,N
1579342695.2,286046993.8,N
1579342715.9,286046996.1,N
1579342735.7,286046997.9,N
1579342755.6,286046995.8,N
1579342775.4,286046998.0,N
1579342795.2,286046997.2,N
1579342815.1,286046999.3,N
1579342816.0,286046999.3,N
1579342835.8,286046996.7,N
1579342855.7,286047000.8,N
1579342875.5,286046998.2,N
1579342895.3,286046998.9,N
1579342915.2,286046999.1,N
1579342935.0,286046998.7,N
1579342935.9,286046998.7,N
1579342955.7,286046998.4,N
1579342975.6,286046998.5,N
1579342995.4,286046999.9,N
1579343015.3,286047000.3,N
1579343035.1,286047001.2,N
1579343036.0,286047001.2,N
1579343055.8,286047002.5,N
1579343075.7,286047003.7,N
1579343095.5,286047004.3,N
1579343115.3,286047001.4,N
1579343135.2,286047000.1,N
1579343155.0,286046998.6,N
1579343155.9,286046998.6,N
1579343175.8,286047011.9,Y
1579343195.6,286046999.1,P
1579343215.4,286046999.6,P
1579343235.3,286046998.1,P
1579343255.1,286046998.5,N
1579343275.9,286046998.2,Y
1579343295.7,286047000.0,P
1579343315.5,286046997.3,P
1579343335.4,286046997.7,N
1579343355.2,286046995.7,Y
1579343375.1,286046997.1,P
1579343376.0,286046997.1,P
1579343395.8,286046997.8,P
1579343415.6,286046997.4,Y
1579343435.5,286046998.2,P
1579343455.3,286046998.8,P
1579343475.1,286046996.9,P
1579343495.9,286046997.0,Y
1579343515.7,286046999.4,P
1579343535.6,286047002.7,P
1579343555.4,286047000.0,N
1579343575.2,286046999.4,N
1579343595.1,286046998.8,N
1579343596.0,286046998.8,N
1579343615.8,286046999.5,N
1579343635.6,286046998.2,N
1579343655.5,286046998.9,N
1579343675.3,286046998.3,N
1579343695.2,286046999.5,N
1579343715.9,286046996.7,N
1579343735.7,286046996.6,N
1579343755.6,286046996.7,N
1579343775.4,286046999.2,N
1579343795.2,286046998.6,N
1579343815.1,286046998.7,N
1579343816.0,286046998.7,N
1579343835.8,286046998.3,N
1579343855.7,286046998.1,N
1579343875.5,286046999.0,N
1579343895.3,286046999.3,N
1579343915.2,286047001.2,N
1579343935.0,286046999.3,N
1579343935.9,286046999.3,N
1579343955.7,286046996.8,N
1579343975.6,286046996.7,N
1579343995.4,286046995.4,Y
1579344015.3,286046995.0,P
1579344035.1,286046995.0,N
1579344036.0,286046995.0,N
1579344055.8,286046997.4,N
1579344075.7,286046997.8,N
1579344095.5,286046994.9,Y
1579344115.4,286046998.1,P
1579344135.2,286046999.1,N
1579344155.0,286046999.8,N
1579344155.9,286046999.8,N
1579344175.8,286046999.7,N
1579344195.6,286047000.1,N
1579344215.4,286047001.0,N
1579344235.3,286047002.7,N
1579344255.1,286047000.0,N
1579344275.8,286047000.4,N
1579344295.7,286047000.5,N
1579344315.5,286046998.8,N
1579344335.4,286046998.4,N
1579344355.2,286046999.9,N
1579344375.0,286046999.7,N
1579344375.9,286046999.7,N
1579344395.8,286047001.9,N
1579344415.6,286047000.2,N
1579344435.4,286046999.8,N
1579344455.3,286047001.7,N
1579344475.1,286047003.5,N
1579344495.9,286047002.9,N
1579344515.7,286047005.9,Y
1579344535.5,286047006.3,P
1579344555.4,286047005.9,N
1579344575.2,286047002.9,N
1579344595.0,286047003.0,N
1579344596.0,286047003.0,N
1579344615.8,286047003.2,N
1579344635.6,286047003.7,N
1579344655.5,286047005.6,Y
1579344675.3,286047000.8,P
1579344695.1,286047000.8,N
1579344715.9,286047001.1,N
1579344735.7,286047000.2,N
1579344755.6,286047000.6,N
1579344775.4,286047002.7,N
1579344795.2,286047000.0,N
1579344815.1,286047000.6,N
1579344816.0,286047000.6,N
1579344835.8,286047002.7,N
1579344855.6,286047000.0,N
1579344875.5,286047000.8,N
1579344895.3,286046998.4,N
1579344915.1,286047000.9,N
1579344965.9,286046998.8,E
1579344975.8,286046998.8,N
1579344995.7,286046998.4,P
1579345015.5,286047001.1,P
1579345035.4,286047001.0,N
1579345055.2,286047000.8,N
1579345075.0,286047000.1,N
1579345075.9,286047000.1,N
1579345095.8,286047002.6,N
1579345115.6,286047000.1,N
1579345135.4,286047000.4,N
1579345155.3,286047000.4,N
1579345175.1,286046999.7,N
1579345195.9,286047004.4,Y
